OBJECT XK

基本信息
目录编号:
65731
目录名称:
OBJECT XK
国际标识:
1998-067XK
轨道中心:
EARTH
物体状态:
已陨落(2026-03-10)
发射日期:
1998-11-20 UTC
国别:
日本 (JP)
轨道信息
数据来源: 国际轨道数据
星历时间: 2026-03-10T06:15:29+0800
半长轴: 6546.398km
偏心率: 0.0002464
轨道倾角: 51.605°
近地点辐角: 211.889°
升交点赤经: 44.251°
平近点角: 148.199°
近地点: 166.647km
远地点: 169.875km
周期: 87.854分钟
每日圈数: 16.390765
详细信息
发射场:
TTMTR
轨道高度:
LEO
数据来源:
AOE Integration Group
参考系:
TEME
时间系统:
UTC
历元类型:
SGP4
2D轨道图
3D轨道图
轨道高度分析图
轨道倾角分析图
轨道综合分析图
查看轨道综合分析图